| time (UTC) | temp F | wind direction | speed MPH | gust MPH | rain 1hr in | rain 24hr in | rain mn in | humidity % | barometer mb |
| 20260507095508 | 44 | 252 | 0.0 | 3.0 | 0.00 | 0.28 | 0.00 | 80 | 1035.4 |
| 20260507095011 | 45 | 76 | 0.0 | 7.0 | 0.00 | 0.28 | 0.00 | 80 | 1035.4 |
| 20260507094506 | 45 | 68 | 2.0 | 7.0 | 0.00 | 0.28 | 0.00 | 80 | 1035.2 |
| 20260507094005 | 45 | 63 | 0.0 | 4.0 | 0.00 | 0.28 | 0.00 | 80 | 1035.1 |
| 20260507093505 | 45 | 81 | 1.0 | 4.0 | 0.00 | 0.28 | 0.00 | 79 | 1035.1 |
| 20260507093005 | 45 | 80 | 0.0 | 5.0 | 0.00 | 0.28 | 0.00 | 80 | 1035.1 |
| 20260507092503 | 45 | 83 | 0.0 | 5.0 | 0.00 | 0.28 | 0.00 | 79 | 1035.1 |
| 20260507092001 | 46 | 79 | 0.0 | 5.0 | 0.00 | 0.28 | 0.00 | 80 | 1034.9 |
| 20260507091501 | 46 | 79 | 1.0 | 6.0 | 0.00 | 0.28 | 0.00 | 80 | 1034.8 |
| 20260507091101 | 46 | 77 | 0.0 | 6.0 | 0.00 | 0.28 | 0.00 | 80 | 1034.9 |
| 20260507090559 | 46 | 110 | 0.0 | 6.0 | 0.00 | 0.28 | 0.00 | 81 | 1035.1 |
| 20260507090059 | 46 | 88 | 0.0 | 3.0 | 0.00 | 0.28 | 0.00 | 81 | 1035.1 |
| 20260507085559 | 47 | 102 | 0.0 | 3.0 | 0.00 | 0.28 | 0.00 | 81 | 1035.0 |
| 20260507085059 | 47 | 91 | 0.0 | 4.0 | 0.00 | 0.28 | 0.00 | 82 | 1035.0 |
| 20260507084559 | 47 | 81 | 0.0 | 4.0 | 0.00 | 0.28 | 0.00 | 83 | 1034.7 |
| 20260507084059 | 47 | 77 | 0.0 | 4.0 | 0.00 | 0.28 | 0.00 | 83 | 1034.7 |
| 20260507083558 | 47 | 83 | 0.0 | 3.0 | 0.00 | 0.28 | 0.00 | 85 | 1034.7 |
| 20260507083059 | 47 | 67 | 0.0 | 3.0 | 0.00 | 0.28 | 0.00 | 85 | 1034.6 |
| 20260507082558 | 46 | 93 | 0.0 | 3.0 | 0.00 | 0.28 | 0.00 | 86 | 1034.7 |
| 20260507082057 | 46 | 83 | 0.0 | 1.0 | 0.00 | 0.28 | 0.00 | 87 | 1034.8 |
| 20260507081558 | 46 | 83 | 0.0 | 0.0 | 0.00 | 0.28 | 0.00 | 87 | 1034.8 |
| 20260507081058 | 46 | 83 | 0.0 | 0.0 | 0.00 | 0.28 | 0.00 | 87 | 1034.8 |
| 20260507080558 | 46 | 83 | 0.0 | 0.0 | 0.00 | 0.28 | 0.00 | 87 | 1034.7 |
| 20260507080059 | 46 | 83 | 0.0 | 1.0 | 0.00 | 0.28 | 0.00 | 86 | 1034.7 |
| 20260507075556 | 46 | 83 | 0.0 | 1.0 | 0.00 | 0.28 | 0.00 | 86 | 1034.7 |
| 20260507075056 | 46 | 83 | 0.0 | 1.0 | 0.00 | 0.28 | 0.00 | 86 | 1034.7 |
| 20260507074556 | 46 | 83 | 0.0 | 0.0 | 0.00 | 0.28 | 0.00 | 84 | 1034.6 |
| 20260507074054 | 46 | 83 | 0.0 | 0.0 | 0.00 | 0.28 | 0.00 | 84 | 1034.9 |
| 20260507073554 | 47 | 83 | 0.0 | 1.0 | 0.00 | 0.28 | 0.00 | 83 | 1034.8 |
| 20260507073058 | 47 | 83 | 0.0 | 1.0 | 0.00 | 0.28 | 0.00 | 82 | 1034.7 |
| 20260507072552 | 48 | 84 | 0.0 | 6.0 | 0.00 | 0.28 | 0.00 | 82 | 1034.9 |
| 20260507072051 | 48 | 84 | 1.0 | 6.0 | 0.00 | 0.28 | 0.00 | 82 | 1034.9 |
| 20260507071553 | 48 | 83 | 0.0 | 1.0 | 0.00 | 0.28 | 0.00 | 82 | 1035.1 |
| 20260507071049 | 49 | 83 | 0.0 | 6.0 | 0.00 | 0.28 | 0.00 | 82 | 1034.9 |
| 20260507070548 | 49 | 84 | 0.0 | 6.0 | 0.00 | 0.28 | 0.00 | 81 | 1034.8 |
| 20260507070051 | 49 | 95 | 0.0 | 5.0 | 0.00 | 0.28 | 0.00 | 81 | 1034.9 |
| 20260507065549 | 49 | 86 | 0.0 | 3.0 | 0.00 | 0.28 | 0.00 | 81 | 1034.9 |
| 20260507065046 | 49 | 85 | 0.0 | 5.0 | 0.00 | 0.28 | 0.00 | 80 | 1035.0 |
| 20260507064548 | 49 | 89 | 0.0 | 7.0 | 0.00 | 0.28 | 0.00 | 81 | 1035.0 |
| 20260507064046 | 49 | 84 | 1.0 | 7.0 | 0.00 | 0.28 | 0.00 | 81 | 1034.9 |
| 20260507063550 | 49 | 82 | 1.0 | 5.0 | 0.00 | 0.28 | 0.00 | 82 | 1034.9 |
| 20260507063049 | 49 | 93 | 0.0 | 7.0 | 0.00 | 0.28 | 0.00 | 83 | 1035.1 |
| 20260507062545 | 50 | 58 | 1.0 | 7.0 | 0.00 | 0.28 | 0.00 | 83 | 1035.1 |
| 20260507062044 | 49 | 111 | 2.0 | 8.0 | 0.00 | 0.28 | 0.00 | 84 | 1035.1 |
| 20260507061544 | 49 | 106 | 1.0 | 8.0 | 0.00 | 0.28 | 0.00 | 85 | 1034.9 |
| 20260507061042 | 50 | 80 | 0.0 | 6.0 | 0.00 | 0.28 | 0.00 | 87 | 1034.9 |
| 20260507060541 | 50 | 96 | 0.0 | 2.0 | 0.00 | 0.28 | 0.00 | 87 | 1034.7 |
| 20260507060051 | 50 | 91 | 0.0 | 2.0 | 0.00 | 0.28 | 0.00 | 87 | 1034.7 |
| 20260507055541 | 50 | 96 | 0.0 | 5.0 | 0.00 | 0.28 | 0.00 | 87 | 1034.7 |
| 20260507055041 | 49 | 82 | 0.0 | 5.0 | 0.00 | 0.28 | 0.00 | 87 | 1034.5 |
| 20260507054547 | 49 | 97 | 0.0 | 3.0 | 0.00 | 0.28 | 0.00 | 87 | 1034.4 |
| 20260507054039 | 49 | 102 | 0.0 | 2.0 | 0.00 | 0.28 | 0.00 | 88 | 1034.5 |
| 20260507053539 | 49 | 80 | 0.0 | 1.0 | 0.00 | 0.28 | 0.00 | 88 | 1034.6 |
| 20260507053042 | 49 | 79 | 0.0 | 0.0 | 0.00 | 0.28 | 0.00 | 88 | 1034.7 |
| 20260507052538 | 49 | 78 | 0.0 | 0.0 | 0.00 | 0.28 | 0.00 | 88 | 1034.6 |
| 20260507052038 | 49 | 78 | 0.0 | 0.0 | 0.00 | 0.28 | 0.00 | 88 | 1034.5 |
| 20260507051539 | 49 | 79 | 0.0 | 0.0 | 0.00 | 0.28 | 0.00 | 88 | 1034.3 |
| 20260507051041 | 49 | 78 | 0.0 | 0.0 | 0.00 | 0.28 | 0.00 | 88 | 1034.4 |
| 20260507050539 | 49 | 78 | 0.0 | 0.0 | 0.00 | 0.28 | 0.00 | 88 | 1034.4 |
| 20260507050038 | 49 | 78 | 0.0 | 0.0 | 0.00 | 0.28 | 0.00 | 88 | 1034.2 |
| 20260507045541 | 49 | 79 | 0.0 | 0.0 | 0.00 | 0.28 | 0.00 | 88 | 1034.6 |
| 20260507045037 | 49 | 78 | 0.0 | 0.0 | 0.00 | 0.28 | 0.00 | 88 | 1034.6 |
| 20260507044549 | 49 | 78 | 0.0 | 0.0 | 0.00 | 0.28 | 0.00 | 88 | 1034.4 |
| 20260507044036 | 50 | 78 | 0.0 | 0.0 | 0.00 | 0.28 | 0.00 | 88 | 1034.1 |
| 20260507043535 | 50 | 78 | 0.0 | 0.0 | 0.00 | 0.28 | 0.00 | 88 | 1034.2 |
| 20260507043034 | 50 | 78 | 0.0 | 0.0 | 0.00 | 0.28 | 0.00 | 88 | 1034.3 |
| 20260507042533 | 50 | 78 | 0.0 | 0.0 | 0.00 | 0.28 | 0.00 | 88 | 1034.4 |
| 20260507042031 | 50 | 78 | 0.0 | 0.0 | 0.00 | 0.28 | 0.00 | 89 | 1034.3 |
| 20260507041530 | 49 | 78 | 0.0 | 0.0 | 0.00 | 0.28 | 0.00 | 88 | 1034.4 |
| 20260507041030 | 49 | 78 | 0.0 | 0.0 | 0.00 | 0.28 | 0.00 | 88 | 1034.1 |
| 20260507040530 | 49 | 78 | 0.0 | 0.0 | 0.00 | 0.28 | 0.00 | 89 | 1034.0 |
| 20260507040033 | 49 | 78 | 0.0 | 0.0 | 0.00 | 0.28 | 0.00 | 89 | 1034.3 |
| 20260507035528 | 50 | 78 | 0.0 | 0.0 | 0.00 | 0.28 | 0.28 | 89 | 1034.0 |
| 20260507035029 | 50 | 78 | 0.0 | 0.0 | 0.00 | 0.28 | 0.28 | 89 | 1034.1 |
| 20260507034531 | 50 | 78 | 0.0 | 0.0 | 0.00 | 0.28 | 0.28 | 89 | 1034.2 |
| 20260507034028 | 50 | 78 | 0.0 | 0.0 | 0.00 | 0.28 | 0.28 | 89 | 1034.3 |
| 20260507033527 | 50 | 78 | 0.0 | 0.0 | 0.00 | 0.28 | 0.28 | 89 | 1034.4 |
| 20260507033027 | 50 | 78 | 0.0 | 0.0 | 0.00 | 0.28 | 0.28 | 89 | 1034.5 |
| 20260507032525 | 50 | 78 | 0.0 | 0.0 | 0.00 | 0.28 | 0.28 | 89 | 1034.5 |
| 20260507032028 | 50 | 78 | 0.0 | 0.0 | 0.00 | 0.28 | 0.28 | 89 | 1034.6 |
| 20260507031525 | 50 | 78 | 0.0 | 0.0 | 0.00 | 0.28 | 0.28 | 89 | 1034.1 |
| 20260507031025 | 51 | 78 | 0.0 | 0.0 | 0.00 | 0.28 | 0.28 | 89 | 1033.9 |
| 20260507030525 | 51 | 78 | 0.0 | 0.0 | 0.00 | 0.28 | 0.28 | 88 | 1034.1 |
| 20260507030023 | 51 | 78 | 0.0 | 0.0 | 0.00 | 0.28 | 0.28 | 88 | 1034.0 |
| 20260507025522 | 51 | 78 | 0.0 | 0.0 | 0.00 | 0.28 | 0.28 | 88 | 1033.8 |
| 20260507025022 | 51 | 78 | 0.0 | 0.0 | 0.00 | 0.28 | 0.28 | 88 | 1034.0 |
| 20260507024522 | 51 | 78 | 0.0 | 0.0 | 0.00 | 0.28 | 0.28 | 88 | 1034.0 |
| 20260507024021 | 51 | 78 | 0.0 | 0.0 | 0.00 | 0.28 | 0.28 | 88 | 1033.9 |
| 20260507023525 | 51 | 78 | 0.0 | 0.0 | 0.00 | 0.28 | 0.28 | 88 | 1034.2 |
| 20260507023022 | 51 | 78 | 0.0 | 0.0 | 0.00 | 0.28 | 0.28 | 88 | 1034.1 |
| 20260507022520 | 51 | 78 | 0.0 | 0.0 | 0.00 | 0.28 | 0.28 | 88 | 1034.0 |
| 20260507022020 | 51 | 78 | 0.0 | 0.0 | 0.00 | 0.28 | 0.28 | 88 | 1034.3 |
| 20260507021522 | 51 | 78 | 0.0 | 0.0 | 0.00 | 0.28 | 0.28 | 88 | 1034.7 |
| 20260507021023 | 51 | 78 | 0.0 | 0.0 | 0.00 | 0.28 | 0.28 | 87 | 1034.7 |
| 20260507020518 | 51 | 78 | 0.0 | 0.0 | 0.00 | 0.28 | 0.28 | 87 | 1034.8 |
| 20260507020021 | 52 | 78 | 0.0 | 1.0 | 0.00 | 0.28 | 0.28 | 87 | 1034.7 |
| 20260507015522 | 52 | 78 | 0.0 | 1.0 | 0.00 | 0.28 | 0.28 | 87 | 1034.7 |
| 20260507015017 | 52 | 78 | 0.0 | 0.0 | 0.00 | 0.28 | 0.28 | 87 | 1034.6 |
| 20260507014517 | 52 | 78 | 0.0 | 1.0 | 0.00 | 0.28 | 0.28 | 87 | 1034.7 |
| 20260507014021 | 52 | 78 | 0.0 | 2.0 | 0.00 | 0.28 | 0.28 | 87 | 1034.6 |
| 20260507013517 | 52 | 78 | 0.0 | 3.0 | 0.00 | 0.28 | 0.28 | 87 | 1034.8 |
| 20260507013016 | 52 | 79 | 0.0 | 3.0 | 0.00 | 0.28 | 0.28 | 87 | 1034.6 |
| 20260507012516 | 52 | 73 | 0.0 | 3.0 | 0.00 | 0.28 | 0.28 | 87 | 1034.6 |
| 20260507012015 | 52 | 76 | 0.0 | 2.0 | 0.00 | 0.28 | 0.28 | 87 | 1034.7 |
| 20260507011515 | 52 | 77 | 0.0 | 0.0 | 0.00 | 0.28 | 0.28 | 87 | 1034.7 |
| 20260507011014 | 52 | 77 | 0.0 | 0.0 | 0.00 | 0.28 | 0.28 | 87 | 1034.7 |
| 20260507010513 | 52 | 77 | 0.0 | 0.0 | 0.00 | 0.28 | 0.28 | 87 | 1034.4 |
| 20260507010012 | 52 | 77 | 0.0 | 0.0 | 0.00 | 0.28 | 0.28 | 87 | 1034.3 |
| 20260507005512 | 52 | 77 | 0.0 | 1.0 | 0.00 | 0.28 | 0.28 | 87 | 1034.1 |
| 20260507005011 | 52 | 77 | 0.0 | 3.0 | 0.00 | 0.28 | 0.28 | 87 | 1034.1 |
| 20260507004510 | 52 | 77 | 0.0 | 3.0 | 0.00 | 0.28 | 0.28 | 87 | 1033.7 |
| 20260507004009 | 52 | 83 | 0.0 | 5.0 | 0.00 | 0.28 | 0.28 | 86 | 1033.7 |
| 20260507003509 | 52 | 83 | 0.0 | 5.0 | 0.00 | 0.28 | 0.28 | 86 | 1033.6 |
| 20260507003007 | 52 | 75 | 0.0 | 3.0 | 0.00 | 0.28 | 0.28 | 86 | 1033.5 |
| 20260507002507 | 52 | 76 | 0.0 | 3.0 | 0.00 | 0.28 | 0.28 | 86 | 1033.4 |
| 20260507002006 | 53 | 83 | 0.0 | 4.0 | 0.00 | 0.28 | 0.28 | 86 | 1033.3 |
| 20260507001512 | 53 | 68 | 1.0 | 4.0 | 0.00 | 0.28 | 0.28 | 86 | 1033.1 |
| 20260507001005 | 53 | 89 | 0.0 | 3.0 | 0.00 | 0.28 | 0.28 | 86 | 1032.9 |
| 20260507000503 | 53 | 89 | 0.0 | 3.0 | 0.00 | 0.28 | 0.28 | 86 | 1032.8 |
| 20260507000008 | 53 | 78 | 0.0 | 3.0 | 0.00 | 0.28 | 0.28 | 86 | 1032.6 |
| 20260506235502 | 53 | 89 | 0.0 | 3.0 | 0.00 | 0.28 | 0.28 | 86 | 1032.6 |
| 20260506235001 | 53 | 86 | 0.0 | 1.0 | 0.00 | 0.28 | 0.28 | 86 | 1032.6 |
| 20260506234603 | 53 | 88 | 0.0 | 1.0 | 0.00 | 0.28 | 0.28 | 86 | 1032.6 |
| 20260506234100 | 53 | 88 | 0.0 | 2.0 | 0.00 | 0.28 | 0.28 | 86 | 1032.3 |
| 20260506233600 | 53 | 80 | 0.0 | 6.0 | 0.00 | 0.28 | 0.28 | 85 | 1032.3 |
| 20260506233104 | 53 | 78 | 2.0 | 6.0 | 0.00 | 0.28 | 0.28 | 85 | 1032.4 |
| 20260506232558 | 54 | 82 | 0.0 | 6.0 | 0.00 | 0.28 | 0.28 | 86 | 1032.2 |
| 20260506232058 | 54 | 83 | 1.0 | 6.0 | 0.00 | 0.28 | 0.28 | 85 | 1032.1 |
| 20260506231556 | 54 | 84 | 1.0 | 9.0 | 0.00 | 0.28 | 0.28 | 85 | 1031.9 |
| 20260506231056 | 54 | 93 | 3.0 | 9.0 | 0.00 | 0.28 | 0.28 | 85 | 1031.6 |
| 20260506230555 | 54 | 84 | 1.0 | 16.0 | 0.00 | 0.28 | 0.28 | 86 | 1031.7 |
| 20260506230055 | 54 | 84 | 3.0 | 16.0 | 0.00 | 0.28 | 0.28 | 86 | 1031.7 |
| 20260506225552 | 55 | 68 | 2.0 | 9.0 | 0.00 | 0.28 | 0.28 | 86 | 1031.7 |
| 20260506225052 | 55 | 89 | 1.0 | 9.0 | 0.00 | 0.28 | 0.28 | 86 | 1031.7 |
| 20260506224602 | 55 | 84 | 2.0 | 9.0 | 0.00 | 0.28 | 0.28 | 86 | 1031.6 |
| 20260506224049 | 55 | 135 | 3.0 | 17.0 | 0.00 | 0.28 | 0.28 | 86 | 1031.4 |
| 20260506223549 | 55 | 98 | 3.0 | 17.0 | 0.00 | 0.28 | 0.28 | 86 | 1031.2 |
| 20260506223047 | 56 | 105 | 3.0 | 12.0 | 0.00 | 0.28 | 0.28 | 86 | 1031.0 |
| 20260506222550 | 56 | 69 | 2.0 | 12.0 | 0.00 | 0.28 | 0.28 | 86 | 1031.0 |
| 20260506222044 | 57 | 80 | 2.0 | 11.0 | 0.00 | 0.28 | 0.28 | 86 | 1030.8 |
| 20260506221544 | 58 | 70 | 2.0 | 12.0 | 0.00 | 0.28 | 0.28 | 86 | 1030.7 |
| 20260506221043 | 59 | 85 | 2.0 | 12.0 | 0.00 | 0.28 | 0.28 | 86 | 1030.5 |
| 20260506220544 | 60 | 41 | 4.0 | 10.0 | 0.00 | 0.28 | 0.28 | 86 | 1030.5 |
| 20260506220044 | 61 | 71 | 3.0 | 15.0 | 0.00 | 0.28 | 0.28 | 86 | 1030.2 |
| 20260506215542 | 63 | 93 | 3.0 | 15.0 | 0.00 | 0.28 | 0.28 | 85 | 1029.9 |
| 20260506215041 | 64 | 143 | 2.0 | 6.0 | 0.00 | 0.28 | 0.28 | 86 | 1029.7 |
| 20260506214556 | 64 | 76 | 1.0 | 5.0 | 0.00 | 0.28 | 0.28 | 87 | 1029.6 |
| 20260506214041 | 64 | 94 | 0.0 | 3.0 | 0.00 | 0.28 | 0.28 | 88 | 1029.5 |
| 20260506213540 | 64 | 92 | 0.0 | 3.0 | 0.00 | 0.28 | 0.28 | 88 | 1029.4 |
| 20260506213044 | 64 | 89 | 0.0 | 2.0 | 0.00 | 0.28 | 0.28 | 88 | 1029.3 |
| 20260506212541 | 64 | 91 | 0.0 | 3.0 | 0.00 | 0.28 | 0.28 | 88 | 1029.2 |
| 20260506212041 | 64 | 208 | 0.0 | 4.0 | 0.00 | 0.28 | 0.28 | 89 | 1029.1 |
| 20260506211540 | 63 | 78 | 0.0 | 4.0 | 0.00 | 0.28 | 0.28 | 89 | 1029.2 |
| 20260506211040 | 63 | 86 | 1.0 | 4.0 | 0.00 | 0.28 | 0.28 | 88 | 1029.2 |
| 20260506210539 | 63 | 86 | 0.0 | 5.0 | 0.00 | 0.28 | 0.28 | 88 | 1029.1 |
| 20260506210041 | 63 | 67 | 1.0 | 5.0 | 0.00 | 0.28 | 0.28 | 88 | 1029.0 |
| 20260506205539 | 63 | 79 | 0.0 | 4.0 | 0.00 | 0.28 | 0.28 | 88 | 1029.0 |
| 20260506205040 | 63 | 79 | 0.0 | 4.0 | 0.00 | 0.28 | 0.28 | 87 | 1028.9 |
| 20260506204539 | 64 | 67 | 0.0 | 6.0 | 0.00 | 0.28 | 0.28 | 87 | 1029.0 |
| 20260506204039 | 64 | 70 | 0.0 | 6.0 | 0.00 | 0.28 | 0.28 | 87 | 1028.8 |
| 20260506203538 | 64 | 81 | 1.0 | 12.0 | 0.00 | 0.28 | 0.28 | 87 | 1028.8 |
| 20260506203041 | 64 | 101 | 0.0 | 12.0 | 0.00 | 0.28 | 0.28 | 87 | 1028.8 |
| 20260506202538 | 64 | 85 | 2.0 | 8.0 | 0.00 | 0.28 | 0.28 | 87 | 1028.7 |
| 20260506202038 | 64 | 89 | 1.0 | 8.0 | 0.00 | 0.28 | 0.28 | 88 | 1028.8 |
| 20260506201539 | 64 | 84 | 0.0 | 8.0 | 0.00 | 0.28 | 0.28 | 89 | 1028.8 |
| 20260506201038 | 63 | 88 | 1.0 | 8.0 | 0.00 | 0.28 | 0.28 | 89 | 1028.8 |
| 20260506200539 | 62 | 79 | 1.0 | 7.0 | 0.00 | 0.28 | 0.28 | 90 | 1028.8 |
| 20260506200037 | 62 | 86 | 1.0 | 7.0 | 0.00 | 0.28 | 0.28 | 89 | 1028.9 |
| 20260506195537 | 62 | 66 | 1.0 | 6.0 | 0.00 | 0.28 | 0.28 | 90 | 1028.8 |
| 20260506195037 | 62 | 79 | 1.0 | 6.0 | 0.00 | 0.28 | 0.28 | 90 | 1028.9 |
| 20260506194548 | 62 | 91 | 1.0 | 6.0 | 0.00 | 0.28 | 0.28 | 90 | 1028.9 |
| 20260506194044 | 62 | 112 | 0.0 | 3.0 | 0.00 | 0.28 | 0.28 | 91 | 1028.8 |
| 20260506193537 | 62 | 80 | 0.0 | 3.0 | 0.00 | 0.28 | 0.28 | 91 | 1029.0 |
| 20260506193036 | 62 | 87 | 0.0 | 5.0 | 0.00 | 0.28 | 0.28 | 91 | 1029.0 |
| 20260506192536 | 62 | 89 | 1.0 | 5.0 | 0.00 | 0.28 | 0.28 | 91 | 1029.0 |
| 20260506192036 | 62 | 80 | 0.0 | 5.0 | 0.00 | 0.28 | 0.28 | 91 | 1029.1 |
| 20260506191536 | 62 | 84 | 0.0 | 5.0 | 0.00 | 0.28 | 0.28 | 92 | 1029.0 |
| 20260506191036 | 62 | 91 | 0.0 | 5.0 | 0.00 | 0.28 | 0.28 | 92 | 1029.1 |
| 20260506190538 | 61 | 88 | 0.0 | 4.0 | 0.00 | 0.28 | 0.28 | 92 | 1029.1 |
| 20260506190039 | 62 | 88 | 0.0 | 4.0 | 0.00 | 0.28 | 0.28 | 92 | 1029.2 |
| 20260506185535 | 61 | 78 | 0.0 | 6.0 | 0.00 | 0.28 | 0.28 | 92 | 1029.0 |
| 20260506185035 | 61 | 105 | 1.0 | 6.0 | 0.01 | 0.28 | 0.28 | 92 | 1029.1 |
| 20260506184534 | 61 | 91 | 1.0 | 6.0 | 0.01 | 0.28 | 0.28 | 92 | 1029.1 |
| 20260506184035 | 61 | 82 | 2.0 | 6.0 | 0.01 | 0.28 | 0.28 | 93 | 1029.0 |
| 20260506183535 | 61 | 97 | 0.0 | 3.0 | 0.01 | 0.28 | 0.28 | 93 | 1029.0 |
| 20260506183034 | 61 | 98 | 1.0 | 3.0 | 0.01 | 0.28 | 0.28 | 93 | 1029.1 |
| 20260506182535 | 61 | 91 | 0.0 | 3.0 | 0.01 | 0.28 | 0.28 | 94 | 1029.1 |
| 20260506182035 | 60 | 111 | 0.0 | 6.0 | 0.01 | 0.28 | 0.28 | 93 | 1029.2 |
| 20260506181536 | 60 | 82 | 1.0 | 6.0 | 0.01 | 0.28 | 0.28 | 93 | 1029.3 |
| 20260506181034 | 60 | 78 | 1.0 | 5.0 | 0.01 | 0.28 | 0.28 | 93 | 1029.3 |
| 20260506180534 | 60 | 78 | 0.0 | 6.0 | 0.01 | 0.28 | 0.28 | 93 | 1029.3 |
| 20260506180039 | 60 | 75 | 1.0 | 6.0 | 0.01 | 0.28 | 0.28 | 94 | 1029.3 |
| 20260506175536 | 60 | 75 | 1.0 | 6.0 | 0.02 | 0.28 | 0.28 | 94 | 1029.3 |
| 20260506175032 | 60 | 86 | 2.0 | 6.0 | 0.01 | 0.28 | 0.28 | 93 | 1029.2 |
| 20260506174535 | 60 | 98 | 1.0 | 5.0 | 0.01 | 0.28 | 0.28 | 93 | 1029.2 |
| 20260506174033 | 60 | 75 | 0.0 | 4.0 | 0.01 | 0.28 | 0.28 | 93 | 1029.3 |
| 20260506173535 | 60 | 99 | 0.0 | 7.0 | 0.01 | 0.28 | 0.28 | 94 | 1029.3 |
| 20260506173032 | 60 | 107 | 1.0 | 7.0 | 0.01 | 0.28 | 0.28 | 94 | 1029.3 |
| 20260506172532 | 60 | 93 | 0.0 | 3.0 | 0.01 | 0.28 | 0.28 | 93 | 1029.2 |
| 20260506172032 | 60 | 136 | 0.0 | 3.0 | 0.01 | 0.28 | 0.28 | 93 | 1029.3 |
| 20260506171548 | 60 | 79 | 0.0 | 4.0 | 0.01 | 0.28 | 0.28 | 93 | 1029.4 |
| 20260506171035 | 60 | 99 | 1.0 | 4.0 | 0.01 | 0.28 | 0.28 | 93 | 1029.4 |
| 20260506170538 | 60 | 77 | 0.0 | 4.0 | 0.01 | 0.28 | 0.28 | 94 | 1029.2 |
| 20260506170037 | 59 | 92 | 0.0 | 4.0 | 0.01 | 0.28 | 0.28 | 93 | 1029.4 |
| 20260506165531 | 59 | 80 | 0.0 | 4.0 | 0.00 | 0.27 | 0.27 | 93 | 1029.5 |
| 20260506165031 | 59 | 86 | 1.0 | 4.0 | 0.00 | 0.27 | 0.27 | 93 | 1029.6 |
| 20260506164533 | 59 | 90 | 0.0 | 4.0 | 0.00 | 0.27 | 0.27 | 93 | 1029.5 |
| 20260506164030 | 59 | 82 | 0.0 | 3.0 | 0.01 | 0.27 | 0.27 | 93 | 1029.3 |
| 20260506163530 | 59 | 92 | 1.0 | 3.0 | 0.01 | 0.27 | 0.27 | 93 | 1029.3 |
| 20260506163040 | 59 | 84 | 0.0 | 3.0 | 0.01 | 0.27 | 0.27 | 93 | 1029.3 |
| 20260506162529 | 59 | 99 | 0.0 | 3.0 | 0.01 | 0.27 | 0.27 | 93 | 1029.4 |
| 20260506162030 | 59 | 95 | 0.0 | 1.0 | 0.02 | 0.27 | 0.27 | 93 | 1029.5 |
| 20260506161530 | 59 | 96 | 0.0 | 2.0 | 0.02 | 0.27 | 0.27 | 93 | 1029.5 |
| 20260506161031 | 59 | 96 | 0.0 | 4.0 | 0.03 | 0.27 | 0.27 | 93 | 1029.5 |
| 20260506160529 | 59 | 109 | 0.0 | 4.0 | 0.04 | 0.27 | 0.27 | 93 | 1029.3 |
| 20260506160032 | 59 | 83 | 0.0 | 2.0 | 0.04 | 0.27 | 0.27 | 93 | 1029.4 |
| 20260506155529 | 59 | 77 | 0.0 | 3.0 | 0.05 | 0.27 | 0.27 | 93 | 1029.3 |
| 20260506155030 | 59 | 88 | 0.0 | 3.0 | 0.06 | 0.27 | 0.27 | 93 | 1029.4 |
| 20260506154529 | 59 | 95 | 0.0 | 2.0 | 0.07 | 0.27 | 0.27 | 93 | 1029.3 |
| 20260506154029 | 59 | 94 | 0.0 | 2.0 | 0.07 | 0.26 | 0.26 | 93 | 1029.3 |
| 20260506153629 | 59 | 84 | 0.0 | 2.0 | 0.07 | 0.26 | 0.26 | 93 | 1029.1 |
| 20260506153028 | 59 | 84 | 0.0 | 2.0 | 0.08 | 0.26 | 0.26 | 93 | 1029.2 |
| 20260506152529 | 59 | 151 | 0.0 | 2.0 | 0.08 | 0.26 | 0.26 | 93 | 1029.1 |
| 20260506152030 | 59 | 90 | 0.0 | 2.0 | 0.08 | 0.25 | 0.25 | 93 | 1029.2 |
| 20260506151534 | 59 | 90 | 0.0 | 2.0 | 0.08 | 0.25 | 0.25 | 93 | 1029.4 |
| 20260506151028 | 59 | 104 | 0.0 | 3.0 | 0.08 | 0.24 | 0.24 | 93 | 1029.4 |
| 20260506150528 | 59 | 153 | 0.0 | 3.0 | 0.07 | 0.23 | 0.23 | 92 | 1029.3 |
| 20260506150027 | 59 | 88 | 0.0 | 3.0 | 0.08 | 0.23 | 0.23 | 92 | 1029.5 |
| 20260506145531 | 59 | 113 | 0.0 | 3.0 | 0.07 | 0.22 | 0.22 | 92 | 1029.7 |
| 20260506145026 | 59 | 91 | 0.0 | 2.0 | 0.07 | 0.21 | 0.21 | 92 | 1029.6 |
| 20260506144527 | 59 | 98 | 0.0 | 2.0 | 0.07 | 0.20 | 0.20 | 92 | 1029.5 |
| 20260506144026 | 59 | 87 | 0.0 | 5.0 | 0.06 | 0.19 | 0.19 | 92 | 1029.5 |
| 20260506143526 | 59 | 75 | 1.0 | 5.0 | 0.06 | 0.18 | 0.18 | 92 | 1029.5 |
| 20260506143026 | 59 | 77 | 1.0 | 4.0 | 0.06 | 0.18 | 0.18 | 92 | 1029.6 |
| 20260506142525 | 59 | 87 | 0.0 | 3.0 | 0.07 | 0.18 | 0.18 | 92 | 1029.6 |
| 20260506142026 | 59 | 94 | 0.0 | 2.0 | 0.06 | 0.17 | 0.17 | 92 | 1029.5 |
| 20260506141525 | 59 | 86 | 0.0 | 2.0 | 0.06 | 0.17 | 0.17 | 92 | 1029.4 |
| 20260506141026 | 59 | 117 | 0.0 | 4.0 | 0.06 | 0.16 | 0.16 | 92 | 1029.5 |
| 20260506140525 | 59 | 84 | 0.0 | 4.0 | 0.07 | 0.16 | 0.16 | 91 | 1029.5 |
| 20260506140029 | 59 | 158 | 0.0 | 2.0 | 0.07 | 0.15 | 0.15 | 91 | 1029.5 |
| 20260506135524 | 59 | 73 | 0.0 | 3.0 | 0.07 | 0.15 | 0.15 | 91 | 1029.5 |
| 20260506135025 | 59 | 98 | 0.0 | 3.0 | 0.07 | 0.14 | 0.14 | 91 | 1029.6 |
| 20260506134523 | 59 | 94 | 0.0 | 2.0 | 0.07 | 0.13 | 0.13 | 91 | 1029.6 |
| 20260506134024 | 59 | 92 | 0.0 | 2.0 | 0.06 | 0.12 | 0.12 | 90 | 1029.7 |
| 20260506133524 | 59 | 80 | 0.0 | 2.0 | 0.07 | 0.12 | 0.12 | 90 | 1029.6 |
| 20260506133040 | 59 | 85 | 0.0 | 2.0 | 0.08 | 0.12 | 0.12 | 90 | 1029.7 |
| 20260506132522 | 59 | 80 | 0.0 | 2.0 | 0.08 | 0.11 | 0.11 | 90 | 1029.6 |
| 20260506132025 | 59 | 97 | 0.0 | 2.0 | 0.08 | 0.11 | 0.11 | 90 | 1029.6 |
| 20260506131529 | 59 | 226 | 0.0 | 2.0 | 0.09 | 0.11 | 0.11 | 90 | 1029.8 |
| 20260506131022 | 59 | 86 | 0.0 | 1.0 | 0.08 | 0.10 | 0.10 | 89 | 1029.8 |
| 20260506130522 | 59 | 84 | 0.0 | 0.0 | 0.07 | 0.09 | 0.09 | 89 | 1029.9 |
| 20260506130022 | 59 | 84 | 0.0 | 0.0 | 0.07 | 0.08 | 0.08 | 89 | 1029.9 |
| 20260506125521 | 59 | 84 | 0.0 | 0.0 | 0.07 | 0.08 | 0.08 | 88 | 1030.0 |
| 20260506125021 | 59 | 84 | 0.0 | 0.0 | 0.06 | 0.07 | 0.07 | 88 | 1030.0 |
| 20260506124521 | 60 | 84 | 0.0 | 0.0 | 0.05 | 0.06 | 0.06 | 88 | 1030.0 |
| 20260506124020 | 60 | 84 | 0.0 | 0.0 | 0.04 | 0.05 | 0.05 | 87 | 1030.1 |
| 20260506123520 | 60 | 84 | 0.0 | 0.0 | 0.05 | 0.05 | 0.05 | 87 | 1030.2 |
| 20260506123020 | 60 | 84 | 0.0 | 3.0 | 0.04 | 0.04 | 0.04 | 86 | 1030.2 |
| 20260506122519 | 60 | 84 | 0.0 | 3.0 | 0.03 | 0.03 | 0.03 | 85 | 1030.2 |
| 20260506122018 | 60 | 89 | 0.0 | 3.0 | 0.03 | 0.03 | 0.03 | 85 | 1030.1 |
| 20260506121518 | 61 | 111 | 0.0 | 4.0 | 0.02 | 0.02 | 0.02 | 84 | 1030.1 |
| 20260506121021 | 61 | 80 | 1.0 | 4.0 | 0.02 | 0.02 | 0.02 | 84 | 1030.1 |
| 20260506120518 | 61 | 82 | 0.0 | 2.0 | 0.02 | 0.02 | 0.02 | 83 | 1030.0 |
| 20260506120032 | 61 | 80 | 0.0 | 3.0 | 0.01 | 0.01 | 0.01 | 83 | 1029.9 |
| 20260506115519 | 61 | 94 | 0.0 | 3.0 | 0.01 | 0.01 | 0.01 | 83 | 1029.8 |
| 20260506115016 | 61 | 93 | 0.0 | 0.0 | 0.01 | 0.01 | 0.01 | 82 | 1029.7 |
| 20260506114516 | 61 | 89 | 0.0 | 0.0 | 0.01 | 0.01 | 0.01 | 81 | 1029.7 |
| 20260506114020 | 61 | 89 | 0.0 | 0.0 | 0.01 | 0.01 | 0.01 | 80 | 1029.7 |
| 20260506113516 | 62 | 95 | 0.0 | 0.0 | 0.00 | 0.00 | 0.00 | 80 | 1029.6 |
| 20260506113016 | 62 | 95 | 0.0 | 0.0 | 0.00 | 0.00 | 0.00 | 79 | 1029.7 |
| 20260506112516 | 63 | 95 | 0.0 | 0.0 | 0.00 | 0.00 | 0.00 | 77 | 1029.7 |
| 20260506112015 | 63 | 94 | 0.0 | 0.0 | 0.00 | 0.00 | 0.00 | 76 | 1029.7 |
| 20260506111515 | 64 | 95 | 0.0 | 0.0 | 0.00 | 0.00 | 0.00 | 73 | 1029.7 |
| 20260506111014 | 64 | 95 | 0.0 | 0.0 | 0.00 | 0.00 | 0.00 | 71 | 1029.6 |
| 20260506110518 | 64 | 95 | 0.0 | 0.0 | 0.00 | 0.00 | 0.00 | 69 | 1029.5 |
| 20260506110013 | 65 | 95 | 0.0 | 0.0 | 0.00 | 0.00 | 0.00 | 68 | 1029.3 |
| 20260506105513 | 65 | 95 | 0.0 | 0.0 | 0.00 | 0.00 | 0.00 | 67 | 1029.3 |
| 20260506105012 | 65 | 94 | 0.0 | 0.0 | 0.00 | 0.00 | 0.00 | 66 | 1029.2 |
| 20260506104512 | 65 | 94 | 0.0 | 0.0 | 0.00 | 0.00 | 0.00 | 66 | 1029.1 |
| 20260506104012 | 65 | 96 | 0.0 | 0.0 | 0.00 | 0.00 | 0.00 | 66 | 1029.1 |
| 20260506103515 | 66 | 96 | 0.0 | 3.0 | 0.00 | 0.00 | 0.00 | 65 | 1029.0 |
| 20260506103012 | 66 | 86 | 0.0 | 3.0 | 0.00 | 0.00 | 0.00 | 65 | 1029.0 |
| 20260506102512 | 66 | 122 | 0.0 | 5.0 | 0.00 | 0.00 | 0.00 | 65 | 1029.0 |
| 20260506102012 | 66 | 86 | 1.0 | 9.0 | 0.00 | 0.00 | 0.00 | 65 | 1028.9 |
| 20260506101512 | 66 | 82 | 1.0 | 9.0 | 0.00 | 0.00 | 0.00 | 64 | 1028.8 |
| 20260506101016 | 66 | 92 | 0.0 | 1.0 | 0.00 | 0.00 | 0.00 | 64 | 1028.8 |
| 20260506100511 | 66 | 96 | 0.0 | 4.0 | 0.00 | 0.00 | 0.00 | 64 | 1028.5 |
| 20260506100016 | 66 | 109 | 0.0 | 4.0 | 0.00 | 0.00 | 0.00 | 63 | 1028.4 |